Voltar ao catálogo

STARLINK-11144

AtivoComunicaçõesVLEO
NORAD 59955·PAYLOAD·🇺🇸 United States

Lançado Jun 5, 2024 de Cape Canaveral Space Force Station

Loading…

Próximas Passagens (próximas 24 horas)

TLE

AtualizadoSource: CelesTrak SupGP

Época: Sep 14, 2026, 20:59 UTC

1 59955C 24107L   26257.87479167  .00074762  00000+0  61577-3 0  2579
2 59955  53.1572  38.4576 0001014  74.3764 239.1743 15.69674960    11

Acompanhe STARLINK-11144 em tempo real com AllMySat

Download on the App Store